Location: Buch
(49.7331°N, 12.1098°E)
Time: 01:32:37
(UTC+00:00)

Landsat 7 - Pass Details

Date: 02 October 2021
Orbit: 701 x 703 km, 98.0° (Epoch: 22 October)

Event Time Altitude Azimuth Distance (km) Brightness Sun altitude
Exits shadow 20:16:54 37° 302° (WNW) 1,095 5.2 -32.6°
Drops below altitude 10° 20:20:14 10° 335° (NNW) 2,181 7.0 -33.0°
Sets 20:22:36 0° 342° (NNW) 3,104 7.9 -33.3°
